CAPE
0 0 0 0 0 0 0 0 0 0 0 0 0 0 0 0 0 0 0 0 0 0
0 0 0 0 0 0 0 0 0 0 0 0 0 0 0 0 0 0 0 0 0 0
0 0 0 0 0 0 0 0 0 0 0 0 0 0 0 0 0 0 0 0 0 0
0 0 0 0 0 0 0 0 0 0 0 0 0 0 0 0 0 0 0 0 0 0
0 0 0 0 0 0 0 0 0 0 0 0 0 0 0 0 0 0 0 0 0 0
0 0 0 0 0 0 0 0 0 0 0 0 0 0 0 0 0 0 0 0 0 0
0 0 0 0 0 0 0 0 0 0 0 0 0 0 0 0 0 0 0 0 0 0
0 0 0 0 0 0 0 0 0 0 0 0 0 0 0 0 0 0 0 0 0 0
0 0 0 1 0 0 0 0 0 0 0 0 0 0 0 0 0 0 0 0 0 0
1 0 0 0 1 0 0 0 0 0 0 0 0 0 0 0 0 0 0 0 0 0
1 1 1 0 2 1 2 1 0 0 0 0 0 0 0 0 0 0 0 0 0 0
1 1 1 1 1 2 2 2 1 0 0 0 0 0 0 0 0 0 0 0 0 0
1 0 0 1 1 2 2 3 1 0 0 0 0 0 0 0 0 0 0 0 0 0
1 0 0 1 0 2 2 1 1 1 0 0 0 0 0 0 0 0 0 0 0 0
CIN
-0 -0 -0 -0 -0 -0 -0 -0 -0 -0 -0 -0 -0 -0 -0 -0 -0 -0 -0 -0 -0 -0
-0 -0 -0 -0 -0 -0 -0 -0 -0 -0 -0 -0 -0 -0 -0 -0 -0 -0 -0 -0 -0 -0
-0 -0 -0 -0 -0 -0 -0 -0 -0 -0 -0 -0 -0 -0 -0 -0 -0 -0 -0 -0 -0 -0
-0 -0 -0 -0 -0 -0 -0 -0 -0 -0 -0 -0 -0 -0 -0 -0 -0 -0 -0 -0 -0 -0
-0 -0 -0 -0 -0 -0 -0 -0 -0 -0 -0 -0 -0 -0 -0 -0 -0 -0 -0 -0 -0 -0
-0 -0 -0 -0 -0 -0 -0 -0 -0 -0 -0 -0 -0 -0 -0 -0 -0 -0 -0 -0 -0 -0
-1 -0 -0 -0 -0 -0 -0 -0 -0 -0 -0 -0 -0 -0 -0 -0 -0 -0 -0 -0 -0 -0
-0 -0 -0 -0 -0 -0 -0 -0 -0 -0 -0 -0 -0 -0 -0 -0 -0 -0 -0 -0 -0 -0
-0 -0 -0 -0 -0 -0 -0 -0 -0 -0 -0 -0 -0 -0 -0 -0 -0 -0 -0 -0 -0 -0
-0 -0 -0 -0 -0 -0 -0 -0 -0 -0 -0 -0 -0 -0 -0 -0 -0 -0 -0 -0 -0 -0
-0 -0 -0 -0 -0 -0 -0 -0 -0 -0 -0 -0 -0 -0 -0 -0 -0 -0 -0 -0 -0 -0
-0 -0 -0 -0 -0 -0 -0 -0 -0 -0 -0 -0 -0 -0 -0 -0 -0 -0 -0 -0 -0 -0
-0 -0 -0 -0 -0 -0 -0 -0 -0 -0 -0 -0 -0 -0 -0 -0 -0 -0 -0 -0 -0 -0
-0 -0 -0 -0 -0 -0 -0 -0 -0 -0 -0 -0 -0 -0 -0 -0 -0 -0 -0 -0 -0 -0
Wind_Speed
37 34 32 31 31 30 28 26 23 17 14 12 11 10 9 10 11 12 15 15 18 14
41 37 35 31 32 31 30 27 24 20 16 14 12 11 10 10 11 11 14 17 15 14
43 41 36 33 33 32 30 28 24 23 20 16 14 12 11 9 7 9 12 16 15 14
42 42 39 37 34 34 31 29 27 25 23 20 17 14 12 10 8 9 11 15 16 13
41 41 40 38 36 34 33 31 29 27 25 23 20 17 14 11 9 8 10 14 14 13
43 43 42 39 36 35 33 33 31 29 26 24 22 19 16 13 11 9 9 12 13 12
42 43 42 40 37 36 34 34 33 31 28 26 24 21 18 15 13 11 9 9 10 11
41 41 40 40 39 36 35 35 34 32 30 28 26 23 20 17 15 13 11 9 8 10
38 39 40 39 39 37 36 35 35 34 32 30 28 25 22 20 18 16 14 11 8 8
36 37 39 38 39 38 37 35 35 36 34 32 30 26 24 22 20 19 16 13 10 9
35 36 36 38 39 39 37 37 35 35 35 33 31 27 25 23 22 21 19 15 12 11
34 34 35 37 38 38 38 37 36 35 35 34 32 28 26 25 24 23 21 17 14 12
32 33 34 35 36 37 38 38 36 35 35 33 32 30 28 27 26 25 23 20 16 14
31 31 33 32 34 35 37 36 36 36 35 34 32 30 29 28 27 26 24 22 19 16
Wind_Direction
238 238 238 236 236 237 236 237 236 228 221 210 189 176 161 144 137 134 143 134 135 115
237 236 236 235 236 236 236 237 234 230 223 214 206 194 177 162 150 142 145 150 136 125
236 236 236 235 234 234 234 234 232 230 230 222 218 211 197 185 167 153 148 151 146 137
236 234 234 234 233 233 233 231 230 230 230 228 225 222 214 207 185 168 155 154 153 148
235 232 231 232 231 230 231 230 230 229 230 231 228 225 217 209 207 185 162 154 151 152
234 232 230 229 228 228 229 229 229 229 228 228 228 226 223 214 208 196 171 157 154 154
231 230 229 229 227 227 228 227 227 228 229 229 228 226 224 219 218 214 198 178 165 159
231 230 228 229 228 228 229 228 227 227 229 228 228 227 221 219 219 219 214 201 190 170
228 228 227 227 226 226 228 228 227 227 226 226 228 225 217 218 221 223 219 206 204 188
225 226 227 226 225 226 227 228 227 227 227 227 228 220 215 215 224 224 225 218 205 197
225 225 225 225 226 227 227 227 227 227 226 228 229 219 214 213 226 228 228 222 209 195
224 225 225 225 225 226 227 227 228 227 224 226 228 219 214 215 226 228 227 225 219 205
225 225 226 226 225 226 227 229 228 227 226 225 226 220 214 216 225 227 229 230 224 205
226 226 227 226 225 227 227 228 228 227 227 225 225 221 214 216 224 226 227 227 226 222